Regional Weather Roundup
Issued by NWS State College, PA

Home | Current Version | Previous Version | Text Only | Print | Product List | Glossary Off
Versions: 1 2 3 4 5 6 7 8 9 10 11 12 13 14 15 16 17 18 19 20 21 22 23 24 25 26 27 28 29 30 31 32 33 34 35 36 37 38 39 40 41 42 43 44 45 46 47 48 49 50

000
ASUS41 KCTP 301103
RWRCTP

REGIONAL WEATHER ROUNDUP
NATIONAL WEATHER SERVICE STATE COLLEGE PA
700 AM EDT SAT MAY 30 2015

Note: "fair" indicates few or no clouds below 12,000 feet with no
significant weather and/or obstructions to visibility.

* = STATION THAT DOES NOT REPORT PRECIPITATION /E.G. RAIN...SNOW...ETC/
    THUNDER OR FOG.

PAZ002>004-007>009-013>016-020>023-029>032-301200-
WESTERN PENNSYLVANIA

CITY           SKY/WX    TMP DP  RH WIND       PRES   REMARKS
ERIE           PTSUNNY   73  63  70 S13       30.04R
MEADVILLE      LGT RAIN  68  62  81 VRB6      30.10R
FRANKLIN*      PTSUNNY   64  61  88 S8        30.13R
NEW CASTLE     FAIR      69  65  87 CALM      30.11S
BEAVER COUNTY  SUNNY     68  61  77 S6        30.12
BUTLER*        MOSUNNY   66  63  88 SW6       30.14S
PITTSBURGH INT PTSUNNY   69  62  78 S5        30.12R
PITTSBURGH     MOSUNNY   68  59  73 S7        30.12R
INDIANA*       SUNNY     68  64  88 CALM      30.18R
LATROBE        MOSUNNY   68  64  88 SW7       30.16R
WASHINGTON CO* MOSUNNY   66  63  88 CALM      30.15R
$$

PAZ004>006-010>012-017>019-024>028-033>037-041-042-045-046-049>053-301200-
CENTRAL PENNSYLVANIA

CITY           SKY/WX    TMP DP  RH WIND       PRES   REMARKS
BRADFORD       MOSUNNY   65  61  87 S7        30.15R
DUBOIS         CLOUDY    68  62  81 SW5       30.14R
CLEARFIELD     CLOUDY    62  61  96 N5        30.16R FOG
JOHNSTOWN      CLOUDY    67  59  75 S7        30.18R
ALTOONA        PTSUNNY   68  64  87 CALM      30.18R
STATE COLLEGE  SUNNY     70  66  88 SW6       30.16R
WILLIAMSPORT   CLOUDY    73  65  75 NE6       30.13R
SELINSGROVE    CLOUDY    72  65  78 S6        30.16R
FT INDIANTOWN  CLOUDY    67  67 100 E2        30.18S FOG
CAPITAL CITY   CLOUDY    70  64  81 VRB6      30.17R
HARRISBURG     CLOUDY    71  64  78 VRB3      30.16S
YORK           SUNNY     69  65  86 CALM      30.18R
$$

PAZ038>040-043-044-047-048-054-055-060>062-067>071-301200-
EASTERN PENNSYLVANIA

CITY           SKY/WX    TMP DP  RH WIND       PRES   REMARKS
SCRANTON       MOSUNNY   72  65  78 SW6       30.17S
MOUNT POCONO   CLOUDY    66  62  87 SW7       30.22R
ALLENTOWN      PTSUNNY   69  64  84 S7        30.19S
QUAKERTOWN*    CLOUDY    66  64  94 SW5       30.21S
READING        CLOUDY    70  65  84 S6        30.17S
LANCASTER      CLOUDY    68  66  93 E5        30.18S FOG
COATESVILLE    CLOUDY    66  66 100 CALM      30.21S FOG
POTTSTOWN      CLOUDY    67  66  97 VRB3      30.21S
BLUE BELL      CLOUDY    70  66  88 S6        30.20S
DOYLESTOWN     PTSUNNY   66  32  28 S6        30.20R
WILLOW GROVE   NOT AVBL
NORTH PHILA    CLOUDY    69  64  84 S6        30.22S
PHILADELPHIA   PTSUNNY   69  65  86 S6        30.21S
$$


USA.gov is the U.S. government's official web portal to all federal, state and local government web resources and services.